Change the Weather History Date:

Wednesday, March 21, 2012

  Actual Average Record
Temperature  
Mean Temperature 62 °F -  
Max Temperature 68 °F 48 °F 71 °F (2007)
Min Temperature 57 °F 28 °F 14 °F (2002)
Degree Days  
Heating Degree Days 2    
Growing Degree Days 12 (Base 50)    
Moisture  
Dew Point 55 °F    
Average Humidity 80    
Maximum Humidity 88    
Minimum Humidity 68    
Precipitation  
Precipitation 0.10 in - - ()
Sea Level Pressure  
Sea Level Pressure 29.94 in    
Wind  
Wind Speed 5 mph (ESE)    
Max Wind Speed 12 mph    
Max Gust Speed -    
Visibility 8 miles    
Events Rain    
Averages and records for this station are not official NWS values.
T = Trace of Precipitation, MM = Missing Value Source: NWS Daily Summary

Daily Weather History Graph

Daily Weather History Graph

Search for Another Location

Airport or City:

Trip Planner

Search our weather history database for the weather conditions in past years. The results will help you decide how hot, cold, wet, or windy it might be!

Date:

Astronomy

Mar. 21, 2012 Rise Set
Actual Time 7:20 AM CDT 7:34 PM CDT
Civil Twilight 6:53 AM CDT 8:01 PM CDT
Nautical Twilight 6:21 AM CDT 8:34 PM CDT
Astronomical Twilight 5:48 AM CDT 9:07 PM CDT
Moon 6:32 AM CDT (3/21) 7:01 PM CDT (3/21)
Length of Visible Light 13h 08m
Length of Day
12h 13m
Waning Crescent, 1% of the Moon is Illuminated
Mar 21
Waning Crescent
Mar 22
New
Mar 30
First Quarter
Apr 6
Full
Apr 13
Last Quarter

Hourly Weather History & Observations

Time (CDT) Temp. Dew Point Humidity Pressure Visibility Wind Dir Wind Speed Gust Speed Precip Events Conditions
12:35 AM 57.2 °F 53.6 °F 88% 29.90 in 10.0 mi South 5.8 mph - N/A   Overcast
12:55 AM 57.2 °F 53.6 °F 88% 29.90 in 10.0 mi South 5.8 mph - N/A   Overcast
1:15 AM 57.2 °F 51.8 °F 82% 29.90 in 10.0 mi SSE 6.9 mph - N/A   Overcast
1:35 AM 57.2 °F 53.6 °F 88% 29.91 in 10.0 mi South 9.2 mph - N/A   Overcast
1:55 AM 57.2 °F 53.6 °F 88% 29.90 in 10.0 mi SSE 9.2 mph - N/A   Overcast
2:55 AM 57.2 °F 51.8 °F 82% 29.92 in 10.0 mi South 6.9 mph - N/A   Overcast
3:15 AM 57.2 °F 51.8 °F 82% 29.91 in 10.0 mi South 3.5 mph - N/A   Overcast
3:35 AM 57.2 °F 51.8 °F 82% 29.91 in 7.0 mi South 3.5 mph - N/A   Overcast
3:55 AM 57.2 °F 51.8 °F 82% 29.91 in 7.0 mi Calm Calm - N/A   Overcast
4:15 AM 57.2 °F 51.8 °F 82% 29.90 in 7.0 mi Calm Calm - N/A   Overcast
4:35 AM 57.2 °F 51.8 °F 82% 29.91 in 7.0 mi Calm Calm - N/A   Overcast
4:55 AM 57.2 °F 51.8 °F 82% 29.91 in 5.0 mi Calm Calm - N/A   Haze
5:15 AM 57.2 °F 51.8 °F 82% 29.92 in 3.0 mi Calm Calm - N/A   Haze
5:35 AM 57.2 °F 51.8 °F 82% 29.92 in 2.0 mi Calm Calm - N/A   Light Drizzle
5:55 AM 57.2 °F 51.8 °F 82% 29.91 in 2.0 mi Calm Calm - N/A   Haze
6:15 AM 57.2 °F 51.8 °F 82% 29.91 in 3.0 mi Calm Calm - N/A   Haze
6:35 AM 57.2 °F 51.8 °F 82% 29.93 in 2.5 mi East 3.5 mph - N/A   Haze
6:55 AM 57.2 °F 51.8 °F 82% 29.92 in 2.5 mi ENE 3.5 mph - N/A   Haze
7:15 AM 57.2 °F 53.6 °F 88% 29.94 in 4.0 mi Calm Calm - N/A   Overcast
7:35 AM 57.2 °F 53.6 °F 88% 29.96 in 2.0 mi Calm Calm - N/A   Overcast
7:55 AM 57.2 °F 51.8 °F 82% 29.97 in 2.0 mi Calm Calm - N/A   Haze
8:15 AM 57.2 °F 51.8 °F 82% 29.98 in 1.5 mi Calm Calm - N/A   Haze
8:35 AM 57.2 °F 53.6 °F 88% 29.98 in 2.0 mi Calm Calm - N/A   Overcast
8:55 AM 57.2 °F 53.6 °F 88% 29.98 in 5.0 mi Calm Calm - N/A   Overcast
9:15 AM 57.2 °F 53.6 °F 88% 29.98 in 5.0 mi Calm Calm - N/A   Haze
9:35 AM 57.2 °F 53.6 °F 88% 29.99 in 7.0 mi Calm Calm - N/A   Overcast
9:55 AM 59.0 °F 53.6 °F 82% 29.99 in 3.0 mi East 3.5 mph - N/A Rain Rain
10:15 AM 60.8 °F 55.4 °F 82% 29.99 in 10.0 mi ESE 3.5 mph - 0.01 in   Overcast
10:35 AM 60.8 °F 55.4 °F 82% 29.99 in 10.0 mi ESE 5.8 mph - 0.01 in   Overcast
10:55 AM 62.6 °F 55.4 °F 77% 29.98 in 10.0 mi East 5.8 mph - 0.01 in   Mostly Cloudy
11:15 AM 64.4 °F 57.2 °F 77% 29.98 in 10.0 mi ESE 8.1 mph - N/A   Mostly Cloudy
11:35 AM 64.4 °F 55.4 °F 73% 29.97 in 10.0 mi ESE 6.9 mph - N/A   Overcast
11:55 AM 64.4 °F 55.4 °F 73% 29.97 in 10.0 mi ESE 5.8 mph - N/A   Overcast
12:15 PM 64.4 °F 55.4 °F 73% 29.98 in 10.0 mi ESE 8.1 mph - N/A   Overcast
12:35 PM 64.4 °F 57.2 °F 77% 29.96 in 10.0 mi East 8.1 mph - N/A   Mostly Cloudy
12:55 PM 62.6 °F 55.4 °F 77% 29.97 in 10.0 mi East 8.1 mph - N/A   Overcast
1:15 PM 64.4 °F 55.4 °F 73% 29.98 in 10.0 mi SE 5.8 mph - N/A   Overcast
1:35 PM 62.6 °F 57.2 °F 82% 29.96 in 5.0 mi East 4.6 mph - N/A   Haze
1:55 PM 64.4 °F 57.2 °F 77% 29.96 in 7.0 mi East 3.5 mph - N/A   Mostly Cloudy
2:15 PM 66.2 °F 57.2 °F 73% 29.95 in 10.0 mi ESE 5.8 mph - N/A   Mostly Cloudy
2:35 PM 66.2 °F 57.2 °F 73% 29.94 in 10.0 mi SE 6.9 mph - N/A   Mostly Cloudy
2:55 PM 68.0 °F 57.2 °F 68% 29.94 in 10.0 mi SE 4.6 mph - N/A   Mostly Cloudy
3:15 PM 66.2 °F 57.2 °F 73% 29.95 in 10.0 mi SE 6.9 mph - N/A   Overcast
3:35 PM 68.0 °F 57.2 °F 68% 29.95 in 10.0 mi SE 3.5 mph - N/A Rain Light Rain
3:55 PM 66.2 °F 57.2 °F 73% 29.95 in 10.0 mi ESE 8.1 mph - N/A   Light Drizzle
4:15 PM 64.4 °F 57.2 °F 77% 29.95 in 10.0 mi East 8.1 mph - N/A Rain Light Rain
4:35 PM 64.4 °F 57.2 °F 77% 29.95 in 10.0 mi East 5.8 mph - 0.02 in Rain Light Rain
4:55 PM 64.4 °F 57.2 °F 77% 29.95 in 10.0 mi ENE 6.9 mph - 0.03 in Rain Light Rain
5:15 PM 64.4 °F 57.2 °F 77% 29.95 in 10.0 mi East 9.2 mph - 0.01 in Rain Rain
5:35 PM 64.4 °F 57.2 °F 77% 29.94 in 10.0 mi East 10.4 mph - 0.05 in Rain Light Rain
5:55 PM 62.6 °F 57.2 °F 82% 29.94 in 10.0 mi East 11.5 mph - 0.05 in   Overcast
6:15 PM 62.6 °F 57.2 °F 82% 29.93 in 7.0 mi East 11.5 mph - 0.01 in Rain Light Rain
6:35 PM 62.6 °F 55.4 °F 77% 29.94 in 10.0 mi East 10.4 mph - 0.01 in   Mostly Cloudy
6:55 PM 62.6 °F 55.4 °F 77% 29.94 in 10.0 mi East 10.4 mph - 0.01 in   Light Drizzle
7:15 PM 62.6 °F 55.4 °F 77% 29.93 in 10.0 mi East 9.2 mph - N/A   Overcast
7:35 PM 62.6 °F 55.4 °F 77% 29.94 in 10.0 mi East 10.4 mph 17.3 mph N/A   Overcast
7:55 PM 62.6 °F 55.4 °F 77% 29.93 in 10.0 mi ENE 8.1 mph - N/A   Overcast
8:15 PM 62.6 °F 55.4 °F 77% 29.92 in 10.0 mi ENE 8.1 mph - N/A   Overcast
8:35 PM 62.6 °F 55.4 °F 77% 29.92 in 10.0 mi ENE 10.4 mph - N/A   Overcast
8:55 PM 62.6 °F 55.4 °F 77% 29.92 in 10.0 mi ENE 6.9 mph - N/A   Overcast
9:15 PM 62.6 °F 55.4 °F 77% 29.92 in 10.0 mi ENE 9.2 mph - N/A   Overcast
9:35 PM 62.6 °F 55.4 °F 77% 29.92 in 10.0 mi ENE 10.4 mph 16.1 mph N/A Rain Light Rain
9:55 PM 62.6 °F 55.4 °F 77% 29.92 in 10.0 mi NE 10.4 mph - 0.01 in   Light Drizzle
10:15 PM 62.6 °F 55.4 °F 77% 29.93 in 10.0 mi ENE 9.2 mph - N/A   Overcast
10:35 PM 62.6 °F 55.4 °F 77% 29.93 in 10.0 mi ENE 8.1 mph - N/A   Overcast
10:55 PM 64.4 °F 55.4 °F 73% 29.94 in 10.0 mi ENE 10.4 mph - N/A   Overcast
11:15 PM 64.4 °F 55.4 °F 73% 29.94 in 10.0 mi East 23.0 mph 29.9 mph N/A   Overcast
11:35 PM 64.4 °F 57.2 °F 77% 29.94 in 10.0 mi East 13.8 mph 19.6 mph N/A   Overcast
11:55 PM 64.4 °F 55.4 °F 73% 29.93 in 10.0 mi East 11.5 mph - N/A   Overcast